Find Starlink 36764

NORAD ID: 68963 Int'l Des: 2026-099 Owner: SPXS Country: US Constellation: starlink operational
LEOCIRCULAR

实时位置

正在加载3D地球...

关于 Starlink 36764

正在加载描述...

即将过境

Passes for default location (London). Set your location on the main map for personalized predictions.

高度历史

Loading altitude history...

两行轨道根数

1 68963C 26099N 26125.80951389 -.01555200 00000+0 -25651-2 0 1258
2 68963 53.1617 7.3785 0000052 143.6671 298.7167 16.03173372 16
Epoch: May 5, 2026 • Age: 33 hours

当前状态

高度 270.6 km
速度 7.75 km/s
星下点 16.12°N, 169.39°E
发射日期 May 1, 2026
运行时间 4 days
类型 internet

技术详情

分类 Payload
质量 575.00 kg
干质量 530.00 kg
总质量 575.00 kg
长度 0.30 m
直径 4.10 m
跨度 29.00 m
形状 Box + pan
制造商 SPXS
平台类型 Starlink V2MO
阶段状态 In Orbit
所有者/国家 SPXS/US

Most Searched